Location: Winthrop
(48.4780°N, 120.1850°W)
Time: 22:36:36
(UTC-07:00)

A-11 Canister half - Pass Details

Date: 07 June 2023
Orbit: 1515 x 1684 km, 47.2° (Epoch: 29 September)

Event Time Altitude Azimuth Distance (km) Brightness Sun altitude
Exits shadow 03:59:43 - 251° (WSW) 4,505 10.9 -8.2°
Reaches altitude 10° 04:01:49 10° 250° (WSW) 3,832 10.6 -8.0°
Maximum altitude 04:11:32 78° 167° (SSE) 1,603 9.1 -6.9°
Drops below altitude 10° 04:20:55 10° 83° (E) 3,711 11.9 -5.8°
Sets 04:23:55 0° 82° (E) 4,681 12.5 -5.4°
